Tracking 29790 objects as of 12-Oct-2024
HD Live streaming from Space Station
objects crossing your sky now

COSMOS 1275 DEB

Track COSMOS 1275 DEB now!
10-day predictions


NORAD ID: 39936
Int'l Code: 1981-053NC
Perigee: 895.0 km
Apogee: 985.7 km
Inclination: 83.1 °
Period: 103.7 minutes
Semi major axis: 7311 km
RCS: 0.0039 m2 (small)
Launch date: April 25, 1981
Source: Commonwealth of Independent States (former USSR) (CIS)
Launch site: PLESETSK MISSILE AND SPACE COMPLEX (PKMTR)

Note: This is SATELLITE DEBRIS
Your satellite tracking list
Your tracking list is empty




NASA's NSSDC Master Catalog

Two Line Element Set (TLE):
1 39936U 81053MW  24284.77042992  .00009498  00000-0  77454-2 0  9996
2 39936  83.1481 292.9475 0061984 151.4946 208.9632 13.88697257513299
Source of the keplerian elements: AFSPC